Dillon, CO

8:04 AM MST on February 27, 2017 (GMT -0700)
Copper Mountain

Weather History for KCCU - May, 2013

Change the Weather History Date:

Saturday, May 4, 2013

  Actual Average Record
Temperature  
Mean Temperature 32 °F -  
Max Temperature 37 °F - 59 °F (2012)
Min Temperature 28 °F - 17 °F (2003)
Degree Days  
Heating Degree Days 32    
Moisture  
Dew Point 17 °F    
Average Humidity 52    
Maximum Humidity 70    
Minimum Humidity 36    
Precipitation  
Precipitation 0.00 in - 0.34 in (2003)
Sea Level Pressure  
Sea Level Pressure 30.22 in    
Wind  
Wind Speed 18 mph (South)    
Max Wind Speed 31 mph    
Max Gust Speed 36 mph    
Visibility 10 miles    
Events      
T = Trace of Precipitation, MM = Missing Value Source: NWS Daily Summary

Daily Weather History Graph

Daily Weather History Graph

Search for Another Location

Airport or City:

Trip Planner

Search our weather history database for the weather conditions in past years. The results will help you decide how hot, cold, wet, or windy it might be!

Date:

Astronomy

May. 04, 2013 Rise Set
Actual Time 6:01 AM MDT 8:01 PM MDT
Civil Twilight 5:32 AM MDT 8:30 PM MDT
Nautical Twilight 4:56 AM MDT 9:06 PM MDT
Astronomical Twilight 4:18 AM MDT 9:45 PM MDT
Moon 3:00 AM MDT (5/4) 3:03 PM MDT (5/4)
Length of Visible Light 14h 58m
Length of Day
13h 59m
Waning Crescent, 26% of the Moon is Illuminated
May 4
Waning Crescent
May 9
New
May 17
First Quarter
May 24
Full
May 31
Last Quarter

Hourly Weather History & Observations

Time (MDT) Temp. Windchill Dew Point Humidity Pressure Visibility Wind Dir Wind Speed Gust Speed Precip Events Conditions
12:12 AM 32.0 °F 19.2 °F 15.8 °F 51% 30.23 in 10.0 mi South 23.0 mph - N/A   Clear
12:32 AM 32.0 °F 19.2 °F 14.0 °F 48% 30.23 in 10.0 mi South 23.0 mph - N/A   Mostly Cloudy
12:52 AM 32.0 °F 18.9 °F 14.0 °F 48% 30.22 in 10.0 mi South 24.2 mph - N/A   Scattered Clouds
1:12 AM 30.2 °F 17.8 °F 14.0 °F 51% 30.22 in 10.0 mi South 19.6 mph - N/A   Clear
1:32 AM 28.4 °F 15.8 °F 14.0 °F 55% 30.22 in 10.0 mi South 18.4 mph - N/A   Clear
1:52 AM 28.4 °F 15.4 °F 14.0 °F 55% 30.21 in 10.0 mi South 19.6 mph - N/A   Scattered Clouds
2:12 AM 28.4 °F 15.1 °F 14.0 °F 55% 30.20 in 10.0 mi South 20.7 mph - N/A   Clear
2:32 AM 28.4 °F 14.7 °F 14.0 °F 55% 30.20 in 10.0 mi South 21.9 mph - N/A   Clear
2:52 AM 28.4 °F 15.4 °F 14.0 °F 55% 30.19 in 10.0 mi South 19.6 mph - N/A   Clear
3:12 AM 28.4 °F 15.4 °F 12.2 °F 51% 30.19 in 10.0 mi South 19.6 mph - N/A   Clear
3:32 AM 28.4 °F 17.0 °F 12.2 °F 51% 30.19 in 10.0 mi South 15.0 mph - N/A   Clear
3:52 AM 28.4 °F 18.0 °F 12.2 °F 51% 30.19 in 10.0 mi SSW 12.7 mph 17.3 mph N/A   Clear
4:12 AM 28.4 °F 16.2 °F 12.2 °F 51% 30.19 in 10.0 mi South 17.3 mph - N/A   Clear
4:32 AM 28.4 °F 17.0 °F 12.2 °F 51% 30.18 in 10.0 mi South 15.0 mph - N/A   Clear
4:52 AM 28.4 °F 19.7 °F 12.2 °F 51% 30.19 in 10.0 mi SSW 9.2 mph 12.7 mph N/A   Clear
5:12 AM 28.4 °F 17.5 °F 10.4 °F 47% 30.18 in 10.0 mi South 13.8 mph - N/A   Clear
5:32 AM 30.2 °F 19.3 °F 10.4 °F 44% 30.18 in 10.0 mi South 15.0 mph - N/A   Clear
5:42 AM 28.4 °F 18.0 °F 10.4 °F 47% 30.18 in 10.0 mi SSW 12.7 mph - N/A   Clear
6:52 AM 30.2 °F 19.8 °F 8.6 °F 40% 30.19 in 10.0 mi South 13.8 mph - N/A   Clear
7:12 AM 30.2 °F 19.3 °F 10.4 °F 44% 30.19 in 10.0 mi South 15.0 mph - N/A   Clear
7:32 AM 30.2 °F 20.2 °F 10.4 °F 44% 30.20 in 10.0 mi South 12.7 mph - N/A   Clear
7:52 AM 32.0 °F 22.1 °F 12.2 °F 44% 30.20 in 10.0 mi South 13.8 mph - N/A   Clear
8:12 AM 32.0 °F 22.1 °F 12.2 °F 44% 30.20 in 10.0 mi South 13.8 mph - N/A   Clear
8:32 AM 32.0 °F 22.5 °F 12.2 °F 44% 30.20 in 10.0 mi South 12.7 mph - N/A   Clear
8:52 AM 33.8 °F 24.3 °F 15.8 °F 48% 30.20 in 10.0 mi South 13.8 mph - N/A   Clear
9:12 AM 33.8 °F 23.9 °F 14.0 °F 44% 30.21 in 10.0 mi South 15.0 mph - N/A   Clear
9:32 AM 33.8 °F 24.8 °F 12.2 °F 41% 30.21 in 10.0 mi South 12.7 mph - N/A   Clear
9:52 AM 33.8 °F 27.7 °F 12.2 °F 41% 30.21 in 10.0 mi SSW 6.9 mph - N/A   Clear
10:12 AM 35.6 °F 27.5 °F 12.2 °F 38% 30.21 in 10.0 mi SSW 11.5 mph - N/A   Clear
10:32 AM 35.6 °F 28.6 °F 14.0 °F 41% 30.22 in 10.0 mi SSW 9.2 mph - N/A   Clear
10:52 AM 37.4 °F 29.3 °F 15.8 °F 41% 30.22 in 10.0 mi SSW 12.7 mph 17.3 mph N/A   Scattered Clouds
11:12 AM 35.6 °F 24.5 °F 14.0 °F 41% 30.22 in 10.0 mi South 20.7 mph 25.3 mph N/A   Mostly Cloudy
11:32 AM 37.4 °F 28.2 °F 17.6 °F 45% 30.22 in 10.0 mi South 16.1 mph 21.9 mph N/A   Mostly Cloudy
11:52 AM 37.4 °F 28.2 °F 15.8 °F 41% 30.23 in 10.0 mi South 16.1 mph 23.0 mph N/A   Overcast
12:12 PM 35.6 °F 27.1 °F 12.2 °F 38% 30.23 in 10.0 mi South 12.7 mph - N/A   Overcast
12:32 PM 35.6 °F 27.5 °F 14.0 °F 41% 30.23 in 10.0 mi SSW 11.5 mph 24.2 mph N/A   Overcast
12:52 PM 37.4 °F 30.3 °F 14.0 °F 38% 30.23 in 10.0 mi SSW 10.4 mph 18.4 mph N/A   Scattered Clouds
1:12 PM 37.4 °F 28.5 °F 12.2 °F 36% 30.22 in 10.0 mi SSW 15.0 mph 26.5 mph N/A   Mostly Cloudy
1:32 PM 37.4 °F 26.4 °F 17.6 °F 45% 30.21 in 10.0 mi SSE 23.0 mph - N/A   Mostly Cloudy
1:52 PM 37.4 °F 26.9 °F 19.4 °F 48% 30.23 in 10.0 mi South 20.7 mph 29.9 mph N/A   Mostly Cloudy
2:12 PM 37.4 °F 27.5 °F 21.2 °F 52% 30.22 in 10.0 mi South 18.4 mph 27.6 mph N/A   Overcast
2:32 PM 37.4 °F 28.2 °F 17.6 °F 45% 30.24 in 10.0 mi South 16.1 mph 21.9 mph N/A   Overcast
2:52 PM 35.6 °F 25.9 °F 19.4 °F 52% 30.24 in 7.0 mi South 16.1 mph 21.9 mph N/A   Overcast
3:12 PM 37.4 °F 32.1 °F 19.4 °F 48% 30.23 in 10.0 mi South 6.9 mph - N/A   Overcast
3:32 PM 37.4 °F 28.9 °F 15.8 °F 41% 30.23 in 10.0 mi South 13.8 mph - N/A   Scattered Clouds
3:52 PM 37.4 °F 28.5 °F 12.2 °F 36% 30.23 in 10.0 mi South 15.0 mph - N/A   Scattered Clouds
4:12 PM 37.4 °F 26.4 °F 23.0 °F 56% 30.23 in 10.0 mi SSE 23.0 mph - N/A   Scattered Clouds
4:32 PM 35.6 °F 24.0 °F 23.0 °F 60% 30.22 in 10.0 mi SSE 23.0 mph 26.5 mph N/A   Mostly Cloudy
4:52 PM 35.6 °F 25.5 °F 23.0 °F 60% 30.23 in 10.0 mi South 17.3 mph - N/A   Overcast
5:12 PM 37.4 °F 27.8 °F 23.0 °F 56% 30.25 in 10.0 mi South 17.3 mph - N/A   Overcast
5:32 PM 37.4 °F 28.9 °F 21.2 °F 52% 30.24 in 10.0 mi SSE 13.8 mph 20.7 mph N/A   Mostly Cloudy
5:52 PM 35.6 °F 25.9 °F 21.2 °F 56% 30.23 in 10.0 mi SSE 16.1 mph 21.9 mph N/A   Scattered Clouds
6:12 PM 37.4 °F 27.5 °F 23.0 °F 56% 30.24 in 10.0 mi SSE 18.4 mph - N/A   Clear
6:32 PM 33.8 °F 22.8 °F 21.2 °F 60% 30.24 in 10.0 mi SSE 18.4 mph - N/A   Clear
6:52 PM 33.8 °F 21.3 °F 23.0 °F 65% 30.23 in 10.0 mi SSE 24.2 mph - N/A   Mostly Cloudy
7:12 PM 33.8 °F 21.6 °F 24.8 °F 70% 30.24 in 10.0 mi SSE 23.0 mph - N/A   Overcast
7:32 PM 33.8 °F 23.2 °F 24.8 °F 70% 30.24 in 10.0 mi SSE 17.3 mph 20.7 mph N/A   Overcast
7:52 PM 33.8 °F 25.8 °F 23.0 °F 65% 30.25 in 10.0 mi SE 10.4 mph 19.6 mph N/A   Mostly Cloudy
8:12 PM 33.8 °F 23.5 °F 23.0 °F 65% 30.25 in 10.0 mi SE 16.1 mph 21.9 mph N/A   Mostly Cloudy
8:32 PM 33.8 °F 23.5 °F 23.0 °F 65% 30.26 in 10.0 mi SSE 16.1 mph 20.7 mph N/A   Scattered Clouds
8:52 PM 33.8 °F 25.8 °F 24.8 °F 70% 30.27 in 10.0 mi ESE 10.4 mph 23.0 mph N/A   Clear
9:12 PM 32.0 °F 19.5 °F 23.0 °F 69% 30.26 in 10.0 mi SSE 21.9 mph - N/A   Scattered Clouds
9:32 PM 32.0 °F 19.2 °F 23.0 °F 69% 30.26 in 10.0 mi SSE 23.0 mph 28.8 mph N/A   Clear
9:52 PM 32.0 °F 18.9 °F 23.0 °F 69% 30.28 in 10.0 mi SSE 24.2 mph - N/A   Clear
10:12 PM 32.0 °F 18.6 °F 23.0 °F 69% 30.28 in 10.0 mi SSE 25.3 mph - N/A   Clear
10:32 PM 32.0 °F 18.9 °F 21.2 °F 64% 30.27 in 10.0 mi SSE 24.2 mph 29.9 mph N/A   Scattered Clouds
10:52 PM 30.2 °F 14.9 °F 21.2 °F 69% 30.27 in 10.0 mi SSE 31.1 mph 35.7 mph N/A   Scattered Clouds
11:12 PM 32.0 °F 18.1 °F 21.2 °F 64% 30.27 in 10.0 mi SSE 27.6 mph - N/A   Clear
11:32 PM 30.2 °F 15.2 °F 19.4 °F 64% 30.27 in 10.0 mi SSE 29.9 mph 34.5 mph N/A   Clear
11:52 PM 30.2 °F 15.4 °F 19.4 °F 64% 30.28 in 10.0 mi SSE 28.8 mph - N/A   Clear